Location: Unspecified
(0.0000°N, 0.0000°E)
Time: 02:34:06
(UTC+00:00)

S-56A Canister/Altair - Pass Details

Date: 20 December 2018
Orbit: 633 x 2500 km, 38.9° (Epoch: 15 January)

Event Time Altitude Azimuth Distance (km) Brightness Sun altitude
Rises 23:51:57 0° 283° (WNW) 3,193 - -66.5°
Reaches altitude 10° 23:57:23 10° 329° (NNW) 2,643 - -66.6°
Maximum altitude 23:57:51 10° 334° (NNW) 2,674 - -66.6°
Drops below altitude 10° 23:58:20 10° 338° (NNW) 2,718 - -66.6°
Sets 00:05:21 0° 20° (NNE) 4,282 - -66.5°
